Voltar ao catálogo

KZ-11 R/B

AtivoPO
NORAD 68205·ROCKET BODY·🇨🇳 China

Lançado Mar 16, 2026 de Jiuquan Satellite Launch Center

Loading…

Próximas Passagens (próximas 24 horas)

TLE

AtualizadoSource: Space-Track

Época: Sep 14, 2026, 14:37 UTC

1 68205U 26052H   26257.60968640  .00037954  17404-5  45555-3 0  9993
2 68205  97.3192 317.4788 0509394 135.7806 228.5316 14.79095435 26868

Acompanhe KZ-11 R/B em tempo real com AllMySat

Download on the App Store